| time (UTC) | temp F | wind direction | speed knots | gust knots | rain 1hr in | rain 24hr in | rain mn in | humidity % | barometer mb |
| 20260507170309 | 60 | 141 | 0.9 | 1.7 | 0.00 | 0.14 | 0.14 | 72 | 1009.2 |
| 20260507165807 | 59 | 133 | 1.7 | 2.6 | 0.00 | 0.14 | 0.14 | 72 | 1009.4 |
| 20260507164807 | 59 | 113 | 1.7 | 2.6 | 0.00 | 0.14 | 0.14 | 72 | 1009.5 |
| 20260507161806 | 57 | 20 | 2.6 | 6.1 | 0.00 | 0.14 | 0.14 | 65 | 1009.8 |
| 20260507160806 | 57 | 1 | 2.6 | 6.1 | 0.00 | 0.14 | 0.14 | 67 | 1010.0 |
| 20260507160307 | 57 | 334 | 2.6 | 5.2 | 0.00 | 0.14 | 0.14 | 68 | 1010.0 |
| 20260507155806 | 56 | 336 | 2.6 | 5.2 | 0.00 | 0.14 | 0.14 | 69 | 1010.0 |
| 20260507154307 | 56 | 358 | 3.5 | 6.1 | 0.00 | 0.14 | 0.14 | 71 | 1010.2 |
| 20260507153807 | 55 | 346 | 6.1 | 10.4 | 0.00 | 0.14 | 0.14 | 71 | 1010.1 |
| 20260507152307 | 55 | 354 | 5.2 | 8.7 | 0.00 | 0.14 | 0.14 | 74 | 1010.2 |
| 20260507151807 | 55 | 356 | 4.3 | 7.8 | 0.00 | 0.14 | 0.14 | 76 | 1010.5 |
| 20260507151306 | 55 | 334 | 4.3 | 7.0 | 0.00 | 0.14 | 0.14 | 76 | 1010.6 |
| 20260507150807 | 55 | 330 | 4.3 | 7.0 | 0.00 | 0.14 | 0.14 | 77 | 1010.5 |
| 20260507150306 | 55 | 307 | 2.6 | 6.1 | 0.00 | 0.14 | 0.14 | 77 | 1010.7 |
| 20260507145307 | 55 | 329 | 2.6 | 7.8 | 0.00 | 0.14 | 0.14 | 78 | 1010.6 |
| 20260507142807 | 54 | 3 | 6.1 | 11.3 | 0.00 | 0.14 | 0.14 | 81 | 1010.7 |
| 20260507142307 | 54 | 329 | 4.3 | 8.7 | 0.00 | 0.14 | 0.14 | 81 | 1010.6 |
| 20260507140806 | 53 | 338 | 5.2 | 10.4 | 0.00 | 0.14 | 0.14 | 82 | 1010.5 |
| 20260507140306 | 53 | 0 | 6.1 | 10.4 | 0.00 | 0.14 | 0.14 | 82 | 1010.6 |
| 20260507134806 | 53 | 344 | 3.5 | 8.7 | 0.00 | 0.14 | 0.14 | 83 | 1010.5 |
| 20260507134307 | 53 | 339 | 4.3 | 10.4 | 0.00 | 0.14 | 0.14 | 84 | 1010.6 |
| 20260507133307 | 53 | 336 | 4.3 | 8.7 | 0.00 | 0.14 | 0.14 | 84 | 1010.6 |
| 20260507132807 | 53 | 351 | 5.2 | 10.4 | 0.00 | 0.14 | 0.14 | 84 | 1010.6 |
| 20260507132307 | 53 | 322 | 4.3 | 10.4 | 0.00 | 0.14 | 0.14 | 84 | 1010.6 |
| 20260507131306 | 53 | 355 | 7.0 | 12.2 | 0.00 | 0.14 | 0.14 | 84 | 1010.4 |
| 20260507125806 | 53 | 350 | 5.2 | 11.3 | 0.00 | 0.14 | 0.14 | 85 | 1010.5 |
| 20260507124306 | 52 | 339 | 5.2 | 10.4 | 0.00 | 0.14 | 0.14 | 85 | 1010.6 |
| 20260507123806 | 52 | 339 | 5.2 | 10.4 | 0.00 | 0.14 | 0.14 | 85 | 1010.3 |
| 20260507122307 | 52 | 340 | 6.1 | 10.4 | 0.00 | 0.14 | 0.14 | 85 | 1010.4 |
| 20260507121306 | 52 | 0 | 3.5 | 7.0 | 0.00 | 0.14 | 0.14 | 86 | 1010.4 |
| 20260507115806 | 52 | 323 | 3.5 | 7.8 | 0.00 | 0.14 | 0.14 | 85 | 1010.7 |
| 20260507114308 | 52 | 2 | 5.2 | 8.7 | 0.00 | 0.14 | 0.14 | 85 | 1010.3 |
| 20260507113806 | 52 | 3 | 2.6 | 6.1 | 0.00 | 0.14 | 0.14 | 86 | 1010.2 |
| 20260507112308 | 52 | 355 | 4.3 | 7.8 | 0.00 | 0.14 | 0.14 | 86 | 1010.0 |
| 20260507110806 | 52 | 333 | 6.1 | 11.3 | 0.00 | 0.14 | 0.14 | 87 | 1010.0 |
| 20260507110307 | 52 | 331 | 5.2 | 13.0 | 0.00 | 0.14 | 0.14 | 87 | 1009.9 |
| 20260507105807 | 52 | 355 | 7.8 | 13.0 | 0.00 | 0.14 | 0.14 | 87 | 1009.9 |
| 20260507105307 | 52 | 351 | 5.2 | 12.2 | 0.00 | 0.14 | 0.14 | 88 | 1009.9 |
| 20260507104807 | 52 | 330 | 4.3 | 8.7 | 0.00 | 0.14 | 0.14 | 88 | 1009.9 |
| 20260507104308 | 52 | 4 | 5.2 | 10.4 | 0.00 | 0.14 | 0.14 | 87 | 1009.9 |
| 20260507102806 | 52 | 315 | 6.1 | 10.4 | 0.00 | 0.14 | 0.14 | 88 | 1009.7 |
| 20260507102307 | 52 | 343 | 5.2 | 10.4 | 0.00 | 0.14 | 0.14 | 88 | 1009.5 |
| 20260507101806 | 52 | 337 | 5.2 | 10.4 | 0.00 | 0.14 | 0.14 | 88 | 1009.3 |
| 20260507100307 | 52 | 341 | 4.3 | 10.4 | 0.00 | 0.14 | 0.14 | 89 | 1009.3 |
| 20260507095306 | 52 | 350 | 5.2 | 11.3 | 0.00 | 0.14 | 0.14 | 89 | 1009.0 |
| 20260507094306 | 52 | 337 | 4.3 | 10.4 | 0.00 | 0.14 | 0.14 | 89 | 1008.9 |
| 20260507093806 | 52 | 340 | 5.2 | 10.4 | 0.00 | 0.14 | 0.14 | 89 | 1009.0 |
| 20260507093306 | 53 | 350 | 5.2 | 10.4 | 0.00 | 0.14 | 0.14 | 89 | 1008.8 |
| 20260507092807 | 53 | 336 | 5.2 | 10.4 | 0.00 | 0.14 | 0.14 | 89 | 1008.8 |
| 20260507091806 | 53 | 350 | 7.8 | 13.0 | 0.00 | 0.14 | 0.14 | 89 | 1008.7 |
| 20260507090307 | 53 | 343 | 6.1 | 13.9 | 0.00 | 0.14 | 0.14 | 89 | 1008.8 |
| 20260507084807 | 53 | 343 | 7.8 | 13.9 | 0.00 | 0.14 | 0.14 | 90 | 1008.3 |
| 20260507084306 | 53 | 341 | 12.2 | 18.2 | 0.00 | 0.14 | 0.14 | 90 | 1008.2 |
| 20260507083806 | 53 | 355 | 9.6 | 14.8 | 0.00 | 0.14 | 0.14 | 90 | 1008.5 |
| 20260507083306 | 53 | 347 | 9.6 | 13.9 | 0.00 | 0.14 | 0.14 | 90 | 1008.7 |
| 20260507081306 | 53 | 357 | 9.6 | 15.6 | 0.07 | 0.14 | 0.14 | 90 | 1008.3 |
| 20260507080806 | 54 | 337 | 10.4 | 15.6 | 0.07 | 0.14 | 0.14 | 90 | 1008.4 |
| 20260507080307 | 54 | 348 | 7.8 | 13.9 | 0.08 | 0.14 | 0.14 | 90 | 1008.5 |
| 20260507073807 | 55 | 330 | 7.0 | 13.0 | 0.14 | 0.14 | 0.14 | 90 | 1008.3 |
| 20260507072806 | 55 | 346 | 6.1 | 10.4 | 0.14 | 0.14 | 0.14 | 90 | 1008.1 |
| 20260507072307 | 55 | 334 | 5.2 | 13.0 | 0.13 | 0.13 | 0.13 | 89 | 1008.8 |
| 20260507071807 | 56 | 350 | 7.8 | 11.3 | 0.12 | 0.12 | 0.12 | 89 | 1008.2 |
| 20260507071306 | 56 | 333 | 7.0 | 12.2 | 0.07 | 0.07 | 0.07 | 88 | 1008.2 |
| 20260507070306 | 56 | 331 | 8.7 | 13.9 | 0.06 | 0.06 | 0.06 | 88 | 1007.9 |
| 20260507064306 | 57 | 352 | 10.4 | 15.6 | 0.02 | 0.02 | 0.02 | 84 | 1007.7 |
| 20260507063807 | 58 | 344 | 11.3 | 17.4 | 0.00 | 0.00 | 0.00 | 83 | 1007.4 |
| 20260507063307 | 59 | 345 | 10.4 | 15.6 | 0.00 | 0.00 | 0.00 | 83 | 1007.6 |
| 20260507062806 | 60 | 359 | 9.6 | 15.6 | 0.00 | 0.00 | 0.00 | 83 | 1007.5 |
| 20260507061807 | 60 | 349 | 8.7 | 13.0 | 0.00 | 0.00 | 0.00 | 87 | 1007.3 |
| 20260507055807 | 60 | 275 | 2.6 | 10.4 | 0.00 | 0.00 | 0.00 | 93 | 1007.3 |
| 20260507055306 | 60 | 245 | 2.6 | 2.6 | 0.00 | 0.00 | 0.00 | 93 | 1007.1 |
| 20260507054306 | 59 | 240 | 1.7 | 6.1 | 0.00 | 0.00 | 0.00 | 93 | 1006.8 |
| 20260507053806 | 59 | 220 | 3.5 | 6.1 | 0.00 | 0.00 | 0.00 | 93 | 1007.2 |
| 20260507053306 | 59 | 236 | 4.3 | 5.2 | 0.00 | 0.00 | 0.00 | 93 | 1007.1 |
| 20260507052307 | 58 | 204 | 1.7 | 2.6 | 0.00 | 0.00 | 0.00 | 93 | 1007.1 |
| 20260507050806 | 59 | 219 | 1.7 | 2.6 | 0.00 | 0.00 | 0.00 | 93 | 1007.1 |
| 20260507045806 | 58 | 212 | 1.7 | 2.6 | 0.00 | 0.00 | 0.00 | 93 | 1007.3 |
| 20260507045307 | 57 | 207 | 1.7 | 2.6 | 0.00 | 0.00 | 0.00 | 93 | 1007.3 |
| 20260507044807 | 57 | 207 | 1.7 | 2.6 | 0.00 | 0.00 | 0.00 | 93 | 1007.3 |
| 20260507043807 | 57 | 194 | 4.3 | 8.7 | 0.00 | 0.00 | 0.00 | 92 | 1007.4 |
| 20260507041806 | 60 | 193 | 1.7 | 4.3 | 0.00 | 0.00 | 0.00 | 93 | 1007.6 |
| 20260507040307 | 60 | 203 | 3.5 | 7.0 | 0.00 | 0.00 | 0.00 | 93 | 1007.5 |
| 20260507035806 | 60 | 227 | 3.5 | 7.0 | 0.00 | 0.00 | 0.00 | 93 | 1007.4 |
| 20260507035306 | 59 | 235 | 3.5 | 7.8 | 0.00 | 0.00 | 0.00 | 93 | 1007.3 |
| 20260507034807 | 59 | 224 | 2.6 | 4.3 | 0.00 | 0.00 | 0.00 | 93 | 1007.3 |
| 20260507034306 | 58 | 228 | 1.7 | 4.3 | 0.00 | 0.00 | 0.00 | 93 | 1007.1 |
| 20260507033806 | 57 | 224 | 3.5 | 5.2 | 0.00 | 0.00 | 0.00 | 94 | 1007.1 |
| 20260507033306 | 56 | 238 | 2.6 | 5.2 | 0.00 | 0.00 | 0.00 | 93 | 1007.3 |
| 20260507032806 | 56 | 202 | 2.6 | 5.2 | 0.00 | 0.00 | 0.00 | 93 | 1007.2 |
| 20260507032307 | 55 | 200 | 3.5 | 5.2 | 0.00 | 0.00 | 0.00 | 93 | 1007.3 |
| 20260507025806 | 55 | 201 | 4.3 | 7.8 | 0.00 | 0.00 | 0.00 | 92 | 1007.7 |
| 20260507024806 | 55 | 196 | 3.5 | 7.8 | 0.00 | 0.00 | 0.00 | 92 | 1007.8 |
| 20260507023806 | 55 | 206 | 3.5 | 6.1 | 0.00 | 0.00 | 0.00 | 92 | 1008.2 |
| 20260507022806 | 55 | 190 | 5.2 | 10.4 | 0.00 | 0.00 | 0.00 | 91 | 1007.8 |
| 20260507021306 | 57 | 192 | 5.2 | 7.8 | 0.00 | 0.00 | 0.00 | 90 | 1008.0 |
| 20260507020806 | 58 | 186 | 2.6 | 5.2 | 0.00 | 0.00 | 0.00 | 90 | 1008.1 |
| 20260507020306 | 58 | 192 | 1.7 | 2.6 | 0.00 | 0.00 | 0.00 | 91 | 1008.2 |
| 20260507014806 | 57 | 188 | 2.6 | 2.6 | 0.00 | 0.00 | 0.00 | 91 | 1008.3 |
| 20260507013306 | 57 | 197 | 4.3 | 10.4 | 0.00 | 0.00 | 0.00 | 91 | 1008.5 |
| 20260507010306 | 56 | 201 | 3.5 | 7.8 | 0.00 | 0.00 | 0.00 | 91 | 1008.1 |
| 20260507005806 | 57 | 204 | 5.2 | 10.4 | 0.00 | 0.00 | 0.00 | 91 | 1008.0 |
| 20260507005308 | 57 | 197 | 4.3 | 10.4 | 0.00 | 0.00 | 0.00 | 90 | 1007.8 |
| 20260507004806 | 57 | 190 | 4.3 | 8.7 | 0.00 | 0.00 | 0.00 | 90 | 1007.7 |
| 20260507003805 | 58 | 188 | 2.6 | 6.1 | 0.00 | 0.00 | 0.00 | 91 | 1007.7 |
| 20260507003306 | 58 | 199 | 5.2 | 10.4 | 0.00 | 0.00 | 0.00 | 90 | 1007.7 |
| 20260507002806 | 58 | 192 | 2.6 | 5.2 | 0.00 | 0.00 | 0.00 | 91 | 1007.5 |
| 20260507002306 | 58 | 200 | 4.3 | 8.7 | 0.00 | 0.00 | 0.00 | 91 | 1007.5 |
| 20260507001806 | 58 | 205 | 5.2 | 8.7 | 0.00 | 0.00 | 0.00 | 91 | 1007.6 |
| 20260507001305 | 57 | 197 | 6.1 | 12.2 | 0.00 | 0.00 | 0.00 | 91 | 1007.7 |
| 20260507000806 | 57 | 194 | 6.1 | 10.4 | 0.00 | 0.00 | 0.00 | 91 | 1007.7 |
| 20260507000306 | 57 | 194 | 7.8 | 13.9 | 0.00 | 0.00 | 0.00 | 91 | 1007.6 |
| 20260506235806 | 57 | 199 | 7.8 | 17.4 | 0.00 | 0.00 | 0.00 | 91 | 1007.6 |
| 20260506234306 | 58 | 199 | 7.8 | 14.8 | 0.00 | 0.00 | 0.00 | 90 | 1007.7 |
| 20260506233806 | 58 | 197 | 7.8 | 10.4 | 0.00 | 0.00 | 0.00 | 90 | 1007.6 |
| 20260506233306 | 58 | 185 | 4.3 | 11.3 | 0.00 | 0.00 | 0.00 | 90 | 1007.6 |
| 20260506232307 | 58 | 201 | 5.2 | 10.4 | 0.00 | 0.00 | 0.00 | 90 | 1007.8 |
| 20260506230807 | 58 | 203 | 8.7 | 14.8 | 0.00 | 0.00 | 0.00 | 88 | 1007.2 |
| 20260506225806 | 59 | 214 | 6.1 | 11.3 | 0.00 | 0.00 | 0.00 | 89 | 1007.3 |
| 20260506223806 | 59 | 205 | 8.7 | 13.0 | 0.00 | 0.00 | 0.00 | 88 | 1007.3 |
| 20260506223306 | 58 | 204 | 7.0 | 13.9 | 0.00 | 0.00 | 0.00 | 89 | 1007.4 |
| 20260506221806 | 58 | 211 | 7.8 | 14.8 | 0.00 | 0.00 | 0.00 | 89 | 1007.4 |
| 20260506220805 | 58 | 205 | 7.8 | 15.6 | 0.00 | 0.00 | 0.00 | 90 | 1007.4 |
| 20260506220306 | 58 | 189 | 10.4 | 17.4 | 0.00 | 0.00 | 0.00 | 90 | 1007.3 |
| 20260506215806 | 57 | 198 | 10.4 | 17.4 | 0.00 | 0.00 | 0.00 | 90 | 1007.2 |
| 20260506214806 | 57 | 199 | 8.7 | 18.2 | 0.00 | 0.00 | 0.00 | 89 | 1007.1 |
| 20260506214306 | 58 | 194 | 7.8 | 13.9 | 0.00 | 0.00 | 0.00 | 89 | 1007.2 |
| 20260506213806 | 58 | 187 | 8.7 | 15.6 | 0.00 | 0.00 | 0.00 | 88 | 1007.1 |
| 20260506213305 | 58 | 198 | 11.3 | 17.4 | 0.00 | 0.00 | 0.00 | 88 | 1007.0 |
| 20260506212807 | 59 | 191 | 10.4 | 15.6 | 0.00 | 0.00 | 0.00 | 87 | 1007.1 |
| 20260506212307 | 59 | 202 | 10.4 | 19.1 | 0.00 | 0.00 | 0.00 | 87 | 1007.0 |
| 20260506211305 | 60 | 209 | 11.3 | 19.1 | 0.00 | 0.00 | 0.00 | 87 | 1007.1 |
| 20260506210305 | 59 | 195 | 11.3 | 19.1 | 0.00 | 0.00 | 0.00 | 87 | 1007.0 |
| 20260506205806 | 59 | 190 | 10.4 | 19.1 | 0.00 | 0.00 | 0.00 | 87 | 1006.9 |
| 20260506204806 | 59 | 202 | 11.3 | 20.0 | 0.00 | 0.00 | 0.00 | 87 | 1006.9 |
| 20260506204306 | 60 | 204 | 10.4 | 18.2 | 0.00 | 0.00 | 0.00 | 87 | 1006.8 |
| 20260506203806 | 60 | 195 | 10.4 | 15.6 | 0.00 | 0.00 | 0.00 | 86 | 1006.8 |
| 20260506203306 | 60 | 197 | 13.0 | 20.0 | 0.00 | 0.00 | 0.00 | 86 | 1006.8 |
| 20260506202306 | 61 | 213 | 9.6 | 20.9 | 0.00 | 0.00 | 0.00 | 86 | 1006.9 |
| 20260506201306 | 60 | 186 | 7.8 | 14.8 | 0.00 | 0.00 | 0.00 | 87 | 1006.9 |
| 20260506200806 | 60 | 181 | 7.8 | 15.6 | 0.00 | 0.00 | 0.00 | 85 | 1007.0 |
| 20260506195306 | 62 | 216 | 8.7 | 14.8 | 0.00 | 0.00 | 0.00 | 86 | 1007.4 |
| 20260506194807 | 62 | 215 | 8.7 | 14.8 | 0.00 | 0.00 | 0.00 | 86 | 1007.5 |
| 20260506194306 | 61 | 210 | 7.8 | 13.0 | 0.00 | 0.00 | 0.00 | 87 | 1007.5 |
| 20260506193807 | 60 | 223 | 8.7 | 13.9 | 0.00 | 0.00 | 0.00 | 88 | 1007.5 |
| 20260506192306 | 59 | 206 | 9.6 | 19.1 | 0.00 | 0.00 | 0.00 | 89 | 1007.5 |
| 20260506191806 | 59 | 205 | 10.4 | 17.4 | 0.00 | 0.00 | 0.00 | 90 | 1007.5 |
| 20260506191306 | 59 | 202 | 10.4 | 17.4 | 0.00 | 0.00 | 0.00 | 90 | 1007.6 |
| 20260506184805 | 59 | 214 | 7.8 | 13.9 | 0.00 | 0.00 | 0.00 | 91 | 1008.0 |
| 20260506182805 | 58 | 210 | 11.3 | 18.2 | 0.00 | 0.00 | 0.00 | 90 | 1008.2 |
| 20260506182307 | 58 | 201 | 10.4 | 17.4 | 0.00 | 0.00 | 0.00 | 89 | 1008.2 |
| 20260506175806 | 58 | 204 | 12.2 | 19.1 | 0.00 | 0.00 | 0.00 | 89 | 1008.4 |
| 20260506175306 | 58 | 218 | 12.2 | 18.2 | 0.00 | 0.00 | 0.00 | 89 | 1008.6 |
| 20260506174805 | 58 | 191 | 10.4 | 20.9 | 0.00 | 0.00 | 0.00 | 89 | 1008.8 |
| 20260506174305 | 58 | 203 | 12.2 | 21.7 | 0.00 | 0.00 | 0.00 | 89 | 1008.8 |
| 20260506172307 | 59 | 202 | 12.2 | 19.1 | 0.00 | 0.00 | 0.00 | 86 | 1008.8 |
| 20260506170806 | 59 | 205 | 8.7 | 21.7 | 0.00 | 0.00 | 0.00 | 87 | 1009.0 |